User: anonymous   Login
Location: Palo Alto
(37.4420°N, 122.1420°W)
Time: 16:52:50
(UTC-07:00)
Language:

Max Valier Satellite - Orbit

View from above orbital plane
View from above orbital plane
View from above satellite
View from above satellite

Ground track
Ground track

The orbit data is extracted from the following two-line orbital elements,

1 42778U 17036P   20297.35327771 +.00001428 +00000-0 +63887-4 0  9991
2 42778 097.2904 347.3630 0010502 295.4759 064.5391 15.22846820185196
Epoch (UTC): 23 October 2020 08:28:43
Eccentricity: 0.0010502
inclination: 97.2904°
perigee height: 490 km
apogee height: 504 km
right ascension of ascending node: 347.3630°
argument of perigee: 295.4759°
revolutions per day: 15.22846820
mean anomaly at epoch: 64.5391°
orbit number at epoch: 18519

The dashed part of the orbit path shows where the satellite is in the earth's shadow,  

DLR